Regional Weather Roundup
Issued by NWS

Home | Current Version | Previous Version | Text Only | Print | Product List | Glossary Off
Versions: 1 2 3 4 5 6 7 8 9 10 11 12 13 14 15 16 17 18 19 20 21 22 23 24 25 26 27 28 29 30 31 32 33 34 35 36 37 38 39 40 41 42 43 44 45 46 47 48 49 50

000
ASUS43 KLOT 221100
RWRIL

ILLINOIS REGIONAL WEATHER ROUNDUP
NATIONAL WEATHER SERVICE CHICAGO/ROMEOVILLE IL
500 AM CST SAT NOV 22 2014

NOTE: "FAIR" INDICATES FEW OR NO CLOUDS BELOW 12,000 FEET WITH NO
SIGNIFICANT WEATHER AND/OR OBSTRUCTIONS TO VISIBILITY.

* THESE STATIONS ARE NOT UNDER NWS QUALITY CONTROL. THEY ALSO MAY NOT
  REPORT WEATHER SUCH AS PRECIPITATION OR FOG.

ILZ001-002-007-009-015-016-024-221200-
NORTHWEST ILLINOIS

CITY           SKY/WX    TMP DP  RH WIND       PRES   REMARKS
MOLINE         CLOUDY    38  35  89 S5        30.01F WCI  34
STERLING*      CLOUDY    36  32  87 CALM      30.03F
$$

ILZ003-004-008-010-011-017-018-221200-
NORTH CENTRAL ILLINOIS

CITY           SKY/WX    TMP DP  RH WIND       PRES   REMARKS
ROCKFORD       LGT RAIN  33  31  92 S8        30.05S FOG     WCI  26
DE KALB*       MIX PCPN  32  32  99 S14       30.04F WCI  22
$$

ILZ005-006-012>014-019>023-221200-
NORTHEAST ILLINOIS

CITY           SKY/WX    TMP DP  RH WIND       PRES   REMARKS
CHICAGO-OHARE  DRIZZLE   34  32  92 SW14      30.05F FOG     WCI  25
CHICAGO-MIDWAY DRIZZLE   36  33  89 SW12G22   30.08F FOG     WCI  28
AURORA         CLOUDY    35  32  88 S10       30.06F FOG     WCI  27
WAUKEGAN       LGT RAIN  33  31  92 SW16      30.02F WCI  23
DUPAGE AIRPORT LGT RAIN  34  32  92 S12       30.05F FOG     WCI  25
WHEELING       LGT RAIN  34  32  92 S12       30.07F FOG     WCI  25
NORTHERLY ISL    N/A     35  33  92 S17         N/A  WCI  25
$$

LMZ740>746-221200-
SOUTHERN LAKE MICHIGAN

STATION/POSITION SKY/WX   TEMP    WIND        PRES    VSBY  WAVE
                          AIR SEA DIR/SP/G                  HT/PER
                          (F)     (DEG/KT/KT) (MB)    (MI)  (FT/S)
SOUTHERN BUOY              38 43  210/ 23/ 29 1018.3F         7/ 6
WAUKEGAN HARBOR            34     220/ 16/ 20   N/A
HARRISON CRIB              34     200/ 25/ 30   N/A
BURNHAM HARBOR             35     210/ 12/ 16   N/A
CALUMET HARBOR             34     190/ 11/ 17 1017.7F
MICHIGAN CITY              33     170/ 15/ 19   N/A
$$

ILZ025>027-034>036-040-047-049-050-058-095>099-221200-
WEST-CENTRAL ILLINOIS

CITY           SKY/WX    TMP DP  RH WIND       PRES   REMARKS
QUINCY         CLOUDY    44  41  89 S13       30.04F
$$

ILZ028>032-037-038-041>044-048-051>054-059>061-221200-
CENTRAL ILLINOIS

CITY           SKY/WX    TMP DP  RH WIND       PRES   REMARKS
BLOOMINGTON    MIX PCPN  37  34  87 S15       30.10F FOG     WCI  28
DECATUR        CLOUDY    40  32  73 S13       30.13F
PEORIA         CLOUDY    41  37  86 S13       30.07F FOG
SPRINGFIELD    CLOUDY    40  34  79 S8        30.11F
TAYLORVILLE    NOT AVBL
$$

ILZ033-039-045-046-055>057-062-063-221200-
EAST-CENTRAL ILLINOIS

CITY           SKY/WX    TMP DP  RH WIND       PRES   REMARKS
CHAMPAIGN      CLOUDY    38  31  76 S14       30.13F WCI  30
MATTOON        CLOUDY    41  29  62 S13G22    30.14F
$$

ILZ079-100>102-221200-
SOUTHWEST ILLINOIS

CITY           SKY/WX    TMP DP  RH WIND       PRES   REMARKS
CAHOKIA*       CLOUDY    44  37  76 SE5       30.14F
$$

ILZ064>066-069>071-074>076-080>082-084>086-088>090-092>094-221200-
SOUTH-CENTRAL ILLINOIS

CITY           SKY/WX    TMP DP  RH WIND       PRES   REMARKS
CARBONDALE     CLOUDY    45  38  76 SE7       30.21F
MT. VERNON     CLOUDY    45  36  70 S8        30.19F
$$

ILZ067-068-072-073-078-083-087-091-221200-
SOUTHEAST ILLINOIS

CITY           SKY/WX    TMP DP  RH WIND       PRES   REMARKS
LAWRENCEVILLE  CLOUDY    41  32  70 S12       30.22F
$$

ABBREVIATIONS USED IN REMARKS
   TC - TEMPERATURE IN CELSIUS
  WCI - WIND CHILL INDEX
   HX - HEAT INDEX
  VSB - VISIBILITY
$$



USA.gov is the U.S. government's official web portal to all federal, state and local government web resources and services.